Weather reports worldwide

Advertisment
Granada/Aeropuerto, Spain (8419): temperature & dewpoint: 27.06.2020 18:00:00 - 03.07.2020 18:00:00 (CEST)Granada/Aeropuerto, Spain (8419): wind speed: 27.06.2020 18:00:00 - 03.07.2020 18:00:00 (CEST)Granada/Aeropuerto, Spain (8419): wind direction: 27.06.2020 18:00:00 - 03.07.2020 18:00:00 (CEST)Granada/Aeropuerto, Spain (8419): reduced air pressure: 27.06.2020 18:00:00 - 03.07.2020 18:00:00 (CEST)Granada/Aeropuerto, Spain (8419): visibility: 27.06.2020 18:00:00 - 03.07.2020 18:00:00 (CEST)
Date & Time tt [°C] td [°C] ff [km/h] ff [kn] dd ppp [hPa] vv [km]
03.07.2020 18:00:00 - - - - - - -
03.07.2020 17:00:00 34,5 8,9 18 10 W 1013,1 30
03.07.2020 16:00:00 34,4 9,3 16 9 WNW 1013,2 30
03.07.2020 15:00:00 33,5 7,5 11 6 W 1013,9 30
03.07.2020 14:00:00 33,0 10,2 8 4 WNW 1014,4 30
03.07.2020 13:00:00 31,2 10,1 2 1 W 1015,2 30
03.07.2020 12:00:00 29,6 12,6 4 2 NNW 1015,8 30
03.07.2020 11:00:00 27,0 11,7 0 0 N 1016,4 25
03.07.2020 10:00:00 23,5 11,5 0 0 N 1017,2 30
03.07.2020 09:00:00 21,0 11,8 4 2 NW 1017,7 25
03.07.2020 08:00:00 17,7 10,4 0 0 N 1018,1 15
03.07.2020 07:00:00 16,4 10,0 0 0 N 1018,1 30
03.07.2020 06:00:00 17,3 9,9 9 5 W 1017,4 30
03.07.2020 05:00:00 19,5 9,9 8 4 SW 1016,9 30
03.07.2020 04:00:00 20,6 9,8 5 3 W 1016,8 30
03.07.2020 03:00:00 21,4 9,3 5 3 WSW 1016,6 30
03.07.2020 02:00:00 21,6 9,2 0 0 N 1016,5 30
03.07.2020 01:00:00 23,3 8,9 13 7 WSW 1016,0 26
03.07.2020 00:00:00 23,5 7,1 9 5 WSW 1015,6 30
02.07.2020 23:00:00 25,0 6,7 8 4 SW 1014,9 30
02.07.2020 22:00:00 28,0 7,3 8 4 SW 1013,7 30
02.07.2020 21:00:00 31,0 7,9 13 7 W 1012,5 28
02.07.2020 20:00:00 32,5 8,0 18 10 W 1011,7 30
02.07.2020 19:00:00 33,3 8,2 21 11 WNW 1011,6 30
02.07.2020 18:00:00 34,5 7,3 26 14 W 1011,7 30
02.07.2020 17:00:00 35,3 4,9 24 13 W 1011,5 30
02.07.2020 16:00:00 36,0 3,2 18 10 W 1011,7 30
02.07.2020 15:00:00 34,3 9,0 21 11 W 1012,3 30
02.07.2020 14:00:00 33,7 10,8 8 4 W 1013,0 30
02.07.2020 13:00:00 32,1 11,4 4 2 N 1013,7 22
02.07.2020 12:00:00 29,3 9,9 4 2 NW 1014,5 30
02.07.2020 11:00:00 26,0 10,2 4 2 NNW 1015,4 18
02.07.2020 10:00:00 23,3 9,0 2 1 NNW 1016,2 30
02.07.2020 09:00:00 19,6 8,3 0 0 N 1016,7 25
02.07.2020 08:00:00 16,6 7,5 0 0 N 1017,1 30
02.07.2020 07:00:00 15,6 7,1 0 0 N 1017,0 30
02.07.2020 06:00:00 17,1 6,6 0 0 N 1015,8 30
02.07.2020 05:00:00 17,1 7,4 4 2 WSW 1015,4 30
02.07.2020 04:00:00 18,1 7,5 4 2 WSW 1015,2 30
02.07.2020 03:00:00 19,3 7,3 4 2 SSW 1015,3 30
02.07.2020 02:00:00 20,7 8,4 0 0 N 1015,2 30
02.07.2020 01:00:00 23,1 5,9 4 2 SW 1014,5 30
02.07.2020 00:00:00 24,0 5,3 5 3 SW 1014,2 30
01.07.2020 23:00:00 26,5 5,4 0 0 N 1013,4 30
01.07.2020 22:00:00 28,3 5,8 11 6 WSW 1012,1 30
01.07.2020 21:00:00 32,5 6,1 9 5 W 1010,9 30
01.07.2020 20:00:00 33,8 6,4 22 12 W 1010,3 30
01.07.2020 19:00:00 35,3 6,3 21 11 W 1009,9 30
01.07.2020 18:00:00 35,8 6,7 18 10 WNW 1009,8 30
01.07.2020 17:00:00 36,2 8,5 18 10 W 1009,8 30
01.07.2020 16:00:00 37,3 8,3 15 8 WSW 1009,9 29
01.07.2020 15:00:00 35,3 8,7 15 8 WNW 1010,6 30
01.07.2020 14:00:00 34,3 12,0 9 5 WNW 1011,3 30
01.07.2020 13:00:00 32,6 11,9 5 3 SW 1012,0 30
01.07.2020 12:00:00 30,5 14,2 4 2 SW 1012,7 19
01.07.2020 11:00:00 27,2 15,2 4 2 NW 1013,6 20
01.07.2020 10:00:00 24,7 16,1 4 2 N 1014,1 16
01.07.2020 09:00:00 22,9 15,7 0 0 N 1014,5 20
01.07.2020 08:00:00 19,7 14,1 0 0 N 1014,8 20
01.07.2020 07:00:00 18,4 13,3 0 0 N 1014,6 19
01.07.2020 06:00:00 19,5 13,9 5 3 SW 1013,8 19
01.07.2020 05:00:00 19,7 12,7 0 0 N 1013,5 23
01.07.2020 04:00:00 21,0 13,4 5 3 SSW 1013,1 23
01.07.2020 03:00:00 23,1 16,0 0 0 N 1012,5 21
01.07.2020 02:00:00 25,3 16,3 13 7 SW 1012,1 21
01.07.2020 01:00:00 26,2 16,3 15 8 SW 1011,9 23
01.07.2020 00:00:00 27,8 16,1 16 9 WSW 1011,2 26
30.06.2020 23:00:00 29,3 13,0 16 9 WSW 1010,1 26
30.06.2020 22:00:00 30,1 11,4 11 6 SW 1009,1 21
30.06.2020 21:00:00 34,4 11,5 15 8 W 1007,7 30
30.06.2020 20:00:00 35,8 12,4 22 12 W 1006,9 23
30.06.2020 19:00:00 36,5 12,5 22 12 W 1006,5 14
30.06.2020 18:00:00 36,9 12,7 22 12 WNW 1006,8 23
30.06.2020 17:00:00 38,2 12,8 16 9 W 1006,6 14
30.06.2020 16:00:00 38,1 11,7 8 4 WNW 1007,2 23
30.06.2020 15:00:00 37,2 11,7 13 7 WNW 1007,8 17
30.06.2020 14:00:00 35,7 10,3 13 7 WNW 1008,7 13
30.06.2020 13:00:00 34,1 10,5 8 4 W 1009,3 17
30.06.2020 12:00:00 31,1 10,4 4 2 WNW 1010,0 23
30.06.2020 11:00:00 28,3 10,6 4 2 NNW 1011,0 24
30.06.2020 10:00:00 25,1 11,2 0 0 N 1012,1 25
30.06.2020 09:00:00 23,2 11,7 2 1 WNW 1012,5 20
30.06.2020 08:00:00 19,1 10,3 8 4 WSW 1013,1 15
30.06.2020 07:00:00 18,0 9,9 4 2 WSW 1013,1 23
30.06.2020 06:00:00 18,3 10,1 2 1 S 1012,7 27
30.06.2020 05:00:00 19,1 10,3 0 0 N 1013,0 30
30.06.2020 04:00:00 20,4 10,2 9 5 S 1013,1 30
30.06.2020 03:00:00 20,9 8,5 0 0 N 1013,5 30
30.06.2020 02:00:00 23,2 10,6 0 0 N 1013,2 30
30.06.2020 01:00:00 25,8 10,5 9 5 S 1012,6 30
30.06.2020 00:00:00 27,1 9,4 11 6 S 1012,7 30
29.06.2020 23:00:00 26,9 8,4 0 0 N 1012,3 29
29.06.2020 22:00:00 28,7 8,9 4 2 W 1011,1 30
29.06.2020 21:00:00 34,1 8,5 9 5 SSW 1009,5 24
29.06.2020 20:00:00 36,3 8,2 22 12 SSE 1008,5 21
29.06.2020 19:00:00 37,9 7,7 24 13 SSE 1008,1 30
29.06.2020 18:00:00 38,7 8,1 24 13 SE 1008,2 23
29.06.2020 17:00:00 38,3 9,8 8 4 N 1008,7 30
29.06.2020 16:00:00 37,6 10,0 8 4 N 1009,6 30
29.06.2020 15:00:00 36,9 11,0 5 3 NNW 1010,5 30
29.06.2020 14:00:00 35,2 10,9 8 4 NNW 1011,7 25
29.06.2020 13:00:00 34,1 11,5 2 1 NNW 1012,5 30
29.06.2020 12:00:00 31,3 12,1 0 0 N 1013,6 28
29.06.2020 11:00:00 28,4 11,0 4 2 N 1014,5 18
29.06.2020 10:00:00 25,5 10,4 0 0 N 1015,4 26
29.06.2020 09:00:00 21,6 11,7 4 2 NW 1016,2 12
29.06.2020 08:00:00 18,8 8,5 0 0 N 1016,8 30
29.06.2020 07:00:00 16,7 7,3 0 0 N 1017,3 30
29.06.2020 06:00:00 17,5 7,5 2 1 SW 1016,9 30
29.06.2020 05:00:00 18,3 7,4 4 2 S 1016,7 30
29.06.2020 04:00:00 19,1 7,8 2 1 WSW 1016,6 30
29.06.2020 03:00:00 21,4 7,2 0 0 N 1016,5 30
29.06.2020 02:00:00 21,7 9,2 4 2 WSW 1016,3 30
29.06.2020 01:00:00 22,8 10,2 4 2 W 1015,9 30
29.06.2020 00:00:00 27,3 6,8 2 1 S 1014,8 30
28.06.2020 23:00:00 28,5 7,7 16 9 S 1013,9 30
28.06.2020 22:00:00 30,0 10,0 13 7 S 1012,8 30
28.06.2020 21:00:00 34,6 9,8 5 3 W 1011,1 30
28.06.2020 20:00:00 35,8 9,9 13 7 W 1010,6 30
28.06.2020 19:00:00 36,7 11,2 13 7 W 1010,3 30
28.06.2020 18:00:00 37,1 9,6 15 8 WNW 1010,5 30
28.06.2020 17:00:00 36,8 10,0 11 6 N 1011,0 24
28.06.2020 16:00:00 36,6 8,6 11 6 WNW 1011,5 27
28.06.2020 15:00:00 35,3 8,2 8 4 N 1012,3 30
28.06.2020 14:00:00 34,3 10,0 8 4 NNW 1013,1 30
28.06.2020 13:00:00 32,6 10,6 4 2 SW 1014,0 28
28.06.2020 12:00:00 30,3 10,9 2 1 W 1014,8 30
28.06.2020 11:00:00 27,1 11,3 0 0 N 1015,8 30
28.06.2020 10:00:00 24,3 11,1 2 1 NNW 1016,7 21
28.06.2020 09:00:00 20,8 10,8 0 0 N 1017,3 30
28.06.2020 08:00:00 18,1 10,2 4 2 WSW 1017,6 27
28.06.2020 07:00:00 15,3 9,4 4 2 SW 1018,0 30
28.06.2020 06:00:00 16,8 9,5 0 0 N 1017,4 30
28.06.2020 05:00:00 17,0 9,7 0 0 N 1017,5 30
28.06.2020 04:00:00 18,3 9,4 0 0 N 1017,2 30
28.06.2020 03:00:00 19,8 9,0 4 2 SW 1016,7 30
28.06.2020 02:00:00 20,9 8,5 0 0 N 1016,6 30
28.06.2020 01:00:00 22,1 8,9 0 0 N 1016,3 30
28.06.2020 00:00:00 24,1 9,3 8 4 SW 1015,8 30
27.06.2020 23:00:00 25,6 9,4 11 6 SW 1014,7 30
27.06.2020 22:00:00 27,3 9,2 9 5 WSW 1013,4 30
27.06.2020 21:00:00 30,3 9,5 11 6 NNW 1012,3 30
27.06.2020 20:00:00 32,2 9,8 16 9 W 1011,7 30
27.06.2020 19:00:00 33,3 10,2 18 10 W 1011,4 30
27.06.2020 18:00:00 33,5 10,2 22 12 W 1011,6 30

tt = temperature
td = dewpoint
ff = wind speed
dd = wind direction
ppp = reduced air pressure
vv = visibility

Next stations